When you browse on this site, cookies collect data to enhance your experience and personalize the content and advertising you see.
Visit our Privacy Policy to learn more. By continuing to use the site, you agree to this use of cookies and data.
  • In Latvia
  • List of Countries
  • For 7 days
  • Water Temperature
  • Satellite Maps
  • Weather Map
  • Weather Widgets
  • user-avatar
    Login

    Hourly Weather Beruni

    Today, 26 May, Sunday

    Time Temperature Precipitation Wind Pressure Humidity
    00:00 +25°C° 0 mm 3 mps 752 mmHg 31%
    01:00 +24°C° 0 mm 2 mps 752 mmHg 32%
    02:00 +24°C° 0 mm 2 mps 753 mmHg 34%
    03:00 +23°C° 0 mm 2 mps 753 mmHg 35%
    04:00 +22°C° 0 mm 3 mps 753 mmHg 37%
    05:00 +24°C° 0 mm 3 mps 753 mmHg 35%
    06:00 +24°C° 0 mm 3 mps 753 mmHg 33%
    07:00 +25°C° 0 mm 4 mps 754 mmHg 31%
    08:00 +27°C° 0 mm 4 mps 754 mmHg 28%
    09:00 +28°C° 0 mm 3 mps 753 mmHg 25%
    10:00 +29°C° 0 mm 3 mps 753 mmHg 22%
    11:00 +30°C° 0 mm 3 mps 753 mmHg 20%
    12:00 +31°C° 0 mm 3 mps 753 mmHg 18%
    13:00 +33°C° 0 mm 3 mps 753 mmHg 16%
    14:00 +34°C° 0 mm 3 mps 752 mmHg 15%
    15:00 +34°C° 0 mm 3 mps 752 mmHg 14%
    16:00 +35°C° 0 mm 3 mps 752 mmHg 13%
    17:00 +34°C° 0 mm 3 mps 752 mmHg 13%
    18:00 +34°C° 0 mm 4 mps 752 mmHg 14%
    19:00 +34°C° 0 mm 4 mps 751 mmHg 14%
    20:00 +33°C° 0 mm 4 mps 752 mmHg 15%
    21:00 +32°C° 0 mm 4 mps 752 mmHg 16%
    22:00 +30°C° 0 mm 4 mps 752 mmHg 16%
    23:00 +30°C° 0 mm 4 mps 752 mmHg 17%

    Tomorrow, 27 May, Monday

    Time Temperature Precipitation Wind Pressure Humidity
    00:00 +29°C° 0 mm 4 mps 752 mmHg 18%
    01:00 +29°C° 0 mm 4 mps 752 mmHg 18%
    02:00 +28°C° 0 mm 4 mps 752 mmHg 19%
    03:00 +28°C° 0 mm 4 mps 752 mmHg 20%
    04:00 +27°C° 0 mm 4 mps 752 mmHg 21%
    05:00 +28°C° 0 mm 4 mps 752 mmHg 20%
    06:00 +29°C° 0 mm 5 mps 752 mmHg 20%
    07:00 +30°C° 0 mm 5 mps 752 mmHg 19%
    08:00 +33°C° 0 mm 5 mps 752 mmHg 17%
    09:00 +35°C° 0 mm 6 mps 752 mmHg 15%
    10:00 +36°C° 0 mm 6 mps 752 mmHg 13%
    11:00 +38°C° 0 mm 6 mps 752 mmHg 12%
    12:00 +39°C° 0 mm 5 mps 751 mmHg 11%
    13:00 +39°C° 0 mm 5 mps 751 mmHg 10%
    14:00 +40°C° 0 mm 5 mps 751 mmHg 10%
    15:00 +40°C° 0 mm 5 mps 751 mmHg 10%
    16:00 +40°C° 0 mm 5 mps 750 mmHg 10%
    17:00 +38°C° 0 mm 4 mps 750 mmHg 10%
    18:00 +38°C° 0 mm 4 mps 750 mmHg 11%
    19:00 +37°C° 0 mm 3 mps 750 mmHg 11%
    20:00 +36°C° 0 mm 3 mps 750 mmHg 12%
    21:00 +35°C° 0 mm 4 mps 750 mmHg 12%
    22:00 +34°C° 0 mm 4 mps 750 mmHg 13%
    23:00 +34°C° 0 mm 4 mps 750 mmHg 14%

    Day after tomorrow, 28 May, Tuesday

    Time Temperature Precipitation Wind Pressure Humidity
    00:00 +33°C° 0 mm 5 mps 750 mmHg 15%
    01:00 +32°C° 0 mm 5 mps 750 mmHg 16%
    02:00 +32°C° 0 mm 5 mps 750 mmHg 17%
    03:00 +30°C° 0 mm 5 mps 750 mmHg 17%
    04:00 +30°C° 0 mm 5 mps 750 mmHg 18%
    05:00 +32°C° 0 mm 5 mps 750 mmHg 17%
    06:00 +33°C° 0 mm 6 mps 750 mmHg 16%
    07:00 +34°C° 0 mm 6 mps 751 mmHg 15%
    08:00 +35°C° 0.1 mm 6 mps 751 mmHg 14%
    09:00 +36°C° 0.1 mm 6 mps 751 mmHg 13%
    10:00 +38°C° 0.1 mm 6 mps 751 mmHg 12%
    11:00 +37°C° 0.2 mm 5 mps 751 mmHg 13%
    12:00 +37°C° 0.2 mm 4 mps 751 mmHg 15%
    13:00 +37°C° 0.2 mm 3 mps 751 mmHg 16%
    14:00 +37°C° 0.1 mm 4 mps 751 mmHg 19%
    15:00 +37°C° 0.1 mm 5 mps 750 mmHg 22%
    16:00 +38°C° 0.1 mm 6 mps 750 mmHg 25%
    17:00 +36°C° 0 mm 5 mps 750 mmHg 25%
    18:00 +36°C° 0 mm 5 mps 750 mmHg 25%
    19:00 +35°C° 0 mm 4 mps 750 mmHg 25%
    20:00 +34°C° 0 mm 4 mps 750 mmHg 25%
    21:00 +34°C° 0 mm 4 mps 751 mmHg 24%
    22:00 +33°C° 0 mm 3 mps 751 mmHg 23%
    23:00 +31°C° 0 mm 3 mps 751 mmHg 25%

    29 May, Wednesday

    Time Temperature Precipitation Wind Pressure Humidity
    00:00 +32°C° 0 mm 4 mps 751 mmHg 27%
    01:00 +30°C° 0 mm 4 mps 751 mmHg 29%
    02:00 +30°C° 0 mm 3 mps 751 mmHg 31%
    03:00 +29°C° 0 mm 3 mps 751 mmHg 34%
    04:00 +28°C° 0 mm 3 mps 751 mmHg 37%
    05:00 +29°C° 0 mm 3 mps 751 mmHg 34%
    06:00 +30°C° 0 mm 4 mps 751 mmHg 32%
    07:00 +32°C° 0 mm 4 mps 751 mmHg 30%
    08:00 +33°C° 0 mm 3 mps 751 mmHg 27%
    09:00 +34°C° 0 mm 3 mps 751 mmHg 24%
    10:00 +35°C° 0 mm 3 mps 751 mmHg 22%
    11:00 +36°C° 0 mm 3 mps 751 mmHg 21%
    12:00 +36°C° 0 mm 2 mps 751 mmHg 20%
    13:00 +37°C° 0 mm 2 mps 750 mmHg 18%
    14:00 +37°C° 0 mm 2 mps 750 mmHg 18%
    15:00 +37°C° 0 mm 2 mps 750 mmHg 18%
    16:00 +37°C° 0 mm 2 mps 749 mmHg 18%
    17:00 +37°C° 0 mm 3 mps 749 mmHg 18%
    18:00 +37°C° 0 mm 3 mps 749 mmHg 19%
    19:00 +36°C° 0 mm 3 mps 749 mmHg 19%
    20:00 +36°C° 0 mm 3 mps 750 mmHg 19%
    21:00 +35°C° 0 mm 4 mps 750 mmHg 20%
    22:00 +35°C° 0 mm 4 mps 750 mmHg 21%
    23:00 +34°C° 0 mm 5 mps 750 mmHg 22%

    30 May, Thursday

    Time Temperature Precipitation Wind Pressure Humidity
    00:00 +33°C° 0 mm 6 mps 749 mmHg 24%
    01:00 +33°C° 0 mm 6 mps 749 mmHg 26%
    02:00 +32°C° 0.7 mm 6 mps 749 mmHg 28%
    03:00 +30°C° 0.7 mm 5 mps 749 mmHg 31%
    04:00 +29°C° 0.7 mm 4 mps 749 mmHg 34%
    05:00 +30°C° 0.3 mm 4 mps 750 mmHg 33%
    06:00 +30°C° 0.3 mm 4 mps 750 mmHg 32%
    07:00 +30°C° 0.3 mm 3 mps 750 mmHg 31%
    08:00 +31°C° 0 mm 3 mps 750 mmHg 29%
    09:00 +33°C° 0 mm 3 mps 750 mmHg 28%
    10:00 +33°C° 0 mm 3 mps 750 mmHg 26%
    11:00 +34°C° 0.1 mm 3 mps 750 mmHg 26%
    12:00 +34°C° 0.1 mm 3 mps 750 mmHg 27%
    13:00 +34°C° 0.1 mm 4 mps 750 mmHg 28%
    14:00 +34°C° 0 mm 4 mps 750 mmHg 28%
    15:00 +33°C° 0 mm 3 mps 749 mmHg 28%
    16:00 +33°C° 0 mm 3 mps 749 mmHg 29%
    17:00 +33°C° 0 mm 4 mps 749 mmHg 30%
    18:00 +32°C° 0 mm 4 mps 749 mmHg 32%
    19:00 +32°C° 0 mm 5 mps 749 mmHg 33%
    20:00 +30°C° 0 mm 5 mps 749 mmHg 34%
    21:00 +30°C° 0 mm 4 mps 749 mmHg 34%
    22:00 +29°C° 0 mm 4 mps 750 mmHg 34%
    23:00 +29°C° 0 mm 4 mps 750 mmHg 37%

    31 May, Friday

    Time Temperature Precipitation Wind Pressure Humidity
    00:00 +28°C° 0 mm 3 mps 749 mmHg 39%
    01:00 +27°C° 0 mm 3 mps 749 mmHg 42%
    02:00 +27°C° 0 mm 3 mps 749 mmHg 43%
    03:00 +26°C° 0 mm 2 mps 749 mmHg 45%
    04:00 +26°C° 0 mm 2 mps 749 mmHg 47%
    05:00 +27°C° 0 mm 2 mps 749 mmHg 44%
    06:00 +28°C° 0 mm 3 mps 749 mmHg 41%
    07:00 +29°C° 0 mm 3 mps 749 mmHg 38%
    08:00 +30°C° 0 mm 3 mps 749 mmHg 34%
    09:00 +31°C° 0 mm 3 mps 749 mmHg 30%
    10:00 +33°C° 0 mm 4 mps 749 mmHg 26%
    11:00 +34°C° 0 mm 3 mps 749 mmHg 24%
    12:00 +35°C° 0 mm 3 mps 749 mmHg 22%
    13:00 +36°C° 0 mm 3 mps 748 mmHg 20%
    14:00 +36°C° 0 mm 3 mps 748 mmHg 19%
    15:00 +37°C° 0 mm 3 mps 748 mmHg 18%
    16:00 +37°C° 0 mm 3 mps 747 mmHg 17%
    17:00 +37°C° 0 mm 3 mps 747 mmHg 16%
    18:00 +36°C° 0 mm 2 mps 747 mmHg 16%
    19:00 +36°C° 0 mm 2 mps 747 mmHg 16%
    20:00 +35°C° 0.2 mm 2 mps 748 mmHg 17%
    21:00 +34°C° 0.2 mm 2 mps 748 mmHg 19%
    22:00 +33°C° 0.2 mm 3 mps 748 mmHg 20%
    23:00 +31°C° 0 mm 3 mps 748 mmHg 21%
    Show more